Location: Augustenthal
(51.7167°N, 10.2833°E)
Time: 09:19:50
(UTC+00:00)

Cosmos 2297 - Pass Details

Date: 18 May 2021
Orbit: 837 x 857 km, 71.0° (Epoch: 15 June)

Event Time Altitude Azimuth Distance (km) Brightness Sun altitude
Rises 19:43:42 0° 177° (S) 3,404 6.4 -5.0°
Reaches altitude 10° 19:46:22 10° 168° (SSE) 2,470 5.7 -5.3°
Maximum altitude 19:51:20 32° 106° (ESE) 1,407 4.4 -5.8°
Drops below altitude 10° 19:56:19 10° 45° (NE) 2,473 6.1 -6.4°
Sets 19:58:58 0° 36° (NE) 3,410 7.0 -6.7°
